Flag for Germany Weather past 2 weeks in Kiel, Schleswig-Holstein, Germany

Now
48 °F

Clear.


Feels Like: 48 °F
Forecast: 49 / 57 °F
Wind: 2 mph from Southwest

Location: Kiel-Holtenau

Current Time: Oct 26, 2014 at 3:18:52 AM

Latest Report: Oct 26, 2014 at 2:00 AM


Visibility: 9 mi

Pressure: 30.14 "Hg

Humidity: 94%

Dew point: 47 °F

Location of KielLocation

Historic Weather in Kiel — Graph

°F

Kiel temperature yesterday

Maximum temperature yesterday: 56 °F (at 4:00 PM)
Minimum temperature yesterday: 49 °F (at 8:00 AM)
Average temperature yesterday: 52 °F

Past Weeks' High & Low Weather Summary

 TemperatureHumidityPressure
High68 °F (Oct 19, 3:00 PM)100% (Oct 11, 3:00 AM)30.16 "Hg (Oct 11, 3:00 AM)
Low46 °F (Oct 23, 9:00 AM)63% (Oct 20, 2:00 PM)29.32 "Hg (Oct 21, 7:00 PM)
Average55 °F90%29.85 "Hg
* Reported Oct 11 3:00 AM — Oct 26 2:00 AM, Kiel, Weather by CustomWeather, © 2014

Note: Actual official high and low records may vary slightly from our data, if they occured in-between our weather recording intervals... More about our weather records

Advertising

Kiel weather history for previous 24 hours

 ConditionsComfort  
Time TempWeatherWind HumidityBarometerVisibility
2:00 AM
Oct 26
48 °FClear.2 mph94%30.14 "Hg9 mi
2:00 AM48 °FClear.2 mph95%30.13 "Hg9 mi
1:00 AM49 °FClear.2 mph94%30.13 "Hg9 mi
12:00 AM50 °FClear.2 mph95%30.11 "Hg7 mi
11:00 PM
Oct 25
51 °FFog.2 mph97%30.10 "Hg4 mi
10:00 PM52 °FFog.2 mph100%30.09 "Hg2 mi
9:00 PM53 °FFog.2 mph98%30.08 "Hg3 mi
8:00 PM53 °FFog.2 mph97%30.08 "Hg4 mi
7:00 PM54 °FPassing clouds.2 mph93%30.06 "Hg7 mi
6:00 PM55 °FPassing clouds.2 mph94%30.05 "Hg5 mi
5:00 PM56 °FFog.2 mph93%30.04 "Hg4 mi
4:00 PM56 °FFog.3 mph91%30.03 "Hg4 mi
3:00 PM55 °FFog.3 mph94%30.02 "Hg4 mi
2:00 PM53 °FFog.3 mph99%30.02 "Hg2 mi
1:00 PM53 °FFog.3 mph97%30.02 "Hg3 mi
12:00 PM52 °FLow clouds.3 mph99%30.01 "Hg3 mi
11:00 AM51 °FLight freezing rain. Low clouds.5 mph99%30.01 "Hg2 mi
10:00 AM50 °FLow clouds.5 mph97%30.00 "Hg2 mi
9:00 AM50 °FDrizzle. Low clouds.5 mph97%29.99 "Hg2 mi
8:00 AM49 °FDrizzle. Low clouds.5 mph97%29.98 "Hg2 mi
7:00 AM50 °FLight freezing rain. Overcast.5 mph95%29.98 "Hg3 mi
6:00 AM50 °FDrizzle. Overcast.5 mph94%29.97 "Hg4 mi
5:00 AM51 °FLight freezing rain. Overcast.5 mph90%29.98 "Hg4 mi
4:00 AM51 °FLight rain. Overcast.5 mph85%29.99 "Hg7 mi
3:00 AM52 °FOvercast.5 mph83%30.00 "Hg11 mi
Weather by CustomWeather, © 2014

See weather overviewHow to use our weather pages